Location: Gokavaram
(16.9752°N, 81.0696°E)
Time: 13:40:10
(UTC+00:00)

Resurs 1-4 Rocket - Pass Details

Date: 15 May 2026
Orbit: 797 x 813 km, 98.8° (Epoch: 11 June)

Event Time Altitude Azimuth Distance (km) Brightness Sun altitude
Rises 21:41:40 0° 357° (N) 3,299 5.7 -31.1°
Reaches altitude 10° 21:44:11 10° 348° (NNW) 2,366 4.8 -30.6°
Enters shadow 21:46:03 20° 335° (NNW) 1,768 3.9 -30.3°
